EST,Max TemperatureF,Mean TemperatureF,Min TemperatureF,Max Dew PointF,MeanDew PointF,Min DewpointF,Max Humidity, Mean Humidity, Min Humidity, Max Sea Level PressureIn, Mean Sea Level PressureIn, Min Sea Level PressureIn, Max VisibilityMiles, Mean VisibilityMiles, Min VisibilityMiles, Max Wind SpeedMPH, Mean Wind SpeedMPH, Max Gust SpeedMPH,PrecipitationIn, CloudCover, Events, WindDirDegrees
2014-1-1,49,37,24,30,25,20,88,67,45,30.46,30.32,30.17,10,9,1,12,3,16,0.00,1,,142
2014-1-2,45,37,29,38,31,26,92,81,70,30.16,29.89,29.55,10,6,1,12,3,15,0.18,5,Rain-Snow,60
2014-1-3,34,24,13,31,15,0,89,66,43,30.52,29.96,29.52,10,4,0,32,15,41,0.03,5,Snow,328
2014-1-4,37,23,9,27,15,4,83,62,40,30.58,30.46,30.32,10,10,10,12,3,51,0.00,1,,192
2014-1-5,63,48,32,59,44,28,89,77,65,30.31,30.10,29.79,10,10,7,22,6,26,0.02,7,Rain,147
2014-1-6,65,42,18,61,43,-3,90,63,36,30.02,29.65,29.53,10,8,2,31,15,41,0.15,7,Rain,264
2014-1-7,20,15,10,6,-4,-9,70,52,34,30.47,30.33,30.06,10,10,10,28,13,38,0.00,0,,282
2014-1-8,32,21,10,16,6,1,83,55,26,30.64,30.56,30.48,10,10,10,8,2,10,0.00,0,,268
2014-1-9,42,33,24,24,21,16,81,60,39,30.66,30.59,30.52,10,10,9,15,4,18,0.00,1,,58
2014-1-10,54,42,29,49,39,25,93,86,78,30.52,30.35,30.16,10,4,0,10,4,14,0.02,8,Fog-Rain,78
2014-1-11,69,61,53,63,58,50,97,89,80,30.13,29.76,29.50,10,8,0,31,15,41,0.70,7,Fog-Rain,188
2014-1-12,57,44,31,50,34,28,89,67,44,30.15,29.90,29.54,10,10,10,22,7,29,0.00,1,,295
2014-1-13,62,46,30,44,34,26,85,61,36,30.18,30.08,29.95,10,10,10,23,8,30,0.00,0,,181
2014-1-14,56,48,40,51,46,39,93,76,59,29.95,29.82,29.69,10,5,0,15,5,20,0.31,7,Fog-Rain,240
2014-1-15,56,45,34,45,39,32,96,79,61,30.02,29.93,29.86,10,4,0,14,3,18,0.00,3,Fog,330
2014-1-16,44,36,28,36,27,22,85,72,59,30.02,29.96,29.90,10,10,7,18,7,24,0.00,6,,324
2014-1-17,51,39,26,34,29,23,92,64,36,30.02,29.95,29.84,10,9,4,16,6,20,0.00,1,,179
2014-1-18,48,36,23,35,22,10,76,58,39,30.01,29.88,29.76,10,10,10,24,10,30,T,3,,290
2014-1-19,50,36,22,29,23,15,81,59,37,29.99,29.86,29.78,10,10,10,21,7,29,0.00,1,,222
2014-1-20,57,47,37,28,27,25,64,47,30,29.90,29.76,29.66,10,10,10,22,9,28,0.00,0,,244
2014-1-21,42,31,19,34,24,13,85,72,59,29.90,29.74,29.63,10,4,1,26,13,35,T,7,Rain-Snow,24
2014-1-22,19,11,2,12,1,-5,87,67,46,30.11,29.92,29.76,10,7,1,29,13,35,0.00,2,Snow,320
2014-1-23,27,14,1,9,3,-4,80,61,41,30.41,30.25,30.12,10,10,10,15,5,21,0.00,2,,291
2014-1-24,22,17,12,3,0,-2,58,47,36,30.54,30.41,30.20,10,10,10,16,8,21,0.00,0,,271
2014-1-25,35,26,16,20,12,4,56,48,39,30.17,29.75,29.53,10,9,1,28,13,39,T,4,Snow,211
2014-1-26,40,31,21,26,14,7,70,50,29,29.97,29.87,29.67,10,10,10,21,8,26,0.00,2,,218
2014-1-27,52,40,27,33,22,1,65,49,32,30.15,29.86,29.73,10,10,10,25,13,31,0.00,3,,261
2014-1-28,27,21,14,9,0,-7,80,56,31,30.42,30.32,30.18,10,7,1,23,11,30,0.07,6,Snow,348
2014-1-29,21,12,3,9,5,-3,80,60,39,30.40,30.26,30.19,10,6,2,21,7,25,0.06,5,Snow,329
2014-1-30,33,14,-6,14,3,-11,87,62,37,30.51,30.40,30.25,10,9,2,9,2,12,0.00,0,,64
2014-1-31,48,28,7,21,14,3,88,57,26,30.25,30.20,30.15,10,10,7,12,1,20,0.00,0,,122